Weather reports worldwide

Advertisment
Luqa, Malta (16597): temperature & dewpoint: 13.06.2019 00:00:00 - 19.06.2019 00:00:00 (CEST)Luqa, Malta (16597): wind speed: 13.06.2019 00:00:00 - 19.06.2019 00:00:00 (CEST)Luqa, Malta (16597): wind direction: 13.06.2019 00:00:00 - 19.06.2019 00:00:00 (CEST)Luqa, Malta (16597): reduced air pressure: 13.06.2019 00:00:00 - 19.06.2019 00:00:00 (CEST)Luqa, Malta (16597): visibility: 13.06.2019 00:00:00 - 19.06.2019 00:00:00 (CEST)
Date & Time tt [°C] td [°C] ff [km/h] ff [kn] dd ppp [hPa] vv [km]
19.06.2019 00:00:00 - - - - - - -
18.06.2019 23:00:00 24,3 20,6 9 5 NE 1015,0 10
18.06.2019 22:00:00 24,0 20,0 11 6 NNW - 10
18.06.2019 21:00:00 25,0 20,0 8 4 W - 10
18.06.2019 20:00:00 26,0 18,3 8 4 SSW 1013,7 10
18.06.2019 19:00:00 27,0 17,0 8 4 SW - 10
18.06.2019 18:00:00 29,0 15,0 9 5 E - 10
18.06.2019 17:00:00 29,4 14,8 11 6 E 1013,3 10
18.06.2019 16:00:00 30,0 14,0 16 9 SE - 10
18.06.2019 15:00:00 30,0 14,0 15 8 SE - 10
18.06.2019 14:00:00 30,5 14,8 16 9 SE 1013,7 10
18.06.2019 13:00:00 30,0 14,0 15 8 SE - 10
18.06.2019 12:00:00 30,0 15,0 13 7 SE - 10
18.06.2019 11:00:00 29,2 15,7 16 9 ESE 1013,4 10
18.06.2019 10:00:00 29,0 17,0 16 9 ESE - 10
18.06.2019 09:00:00 27,0 19,0 11 6 E - 10
18.06.2019 08:00:00 24,1 22,5 11 6 ENE 1012,8 10
18.06.2019 07:00:00 24,0 23,0 11 6 NE - 8
18.06.2019 06:00:00 23,0 21,0 9 5 N - 6
18.06.2019 05:00:00 22,5 19,3 9 5 N 1012,2 10
18.06.2019 04:00:00 23,0 20,0 5 3 N - 10
18.06.2019 03:00:00 23,0 21,0 11 6 WSW - 10
18.06.2019 02:00:00 23,5 20,9 8 4 NE 1011,9 10
18.06.2019 01:00:00 23,0 20,0 5 3 NE - 10
18.06.2019 00:00:00 24,0 20,0 5 3 E - 10
17.06.2019 23:00:00 23,6 20,0 8 4 SE 1012,3 10
17.06.2019 22:00:00 24,0 19,0 9 5 ESE - 10
17.06.2019 21:00:00 25,0 17,0 9 5 SSE - 10
17.06.2019 20:00:00 26,9 16,0 4 2 SSE 1012,0 10
17.06.2019 19:00:00 28,0 16,0 11 6 SSW - 10
17.06.2019 18:00:00 29,0 14,0 15 8 S - 10
17.06.2019 17:00:00 30,9 11,6 15 8 SE 1012,1 10
17.06.2019 16:00:00 31,0 13,0 8 4 SSE - 10
17.06.2019 15:00:00 30,0 15,0 15 8 ESE - 10
17.06.2019 14:00:00 30,7 14,2 13 7 ESE 1012,6 10
17.06.2019 13:00:00 31,0 14,0 15 8 ESE - 10
17.06.2019 12:00:00 30,0 15,0 18 10 ESE - 10
17.06.2019 11:00:00 29,3 16,8 9 5 E 1012,9 10
17.06.2019 10:00:00 28,0 18,0 15 8 NE - 10
17.06.2019 09:00:00 28,0 18,0 11 6 NNE - 10
17.06.2019 08:00:00 26,1 18,4 8 4 NE 1012,4 10
17.06.2019 07:00:00 25,0 17,0 4 2 SW - 10
17.06.2019 06:00:00 23,0 17,0 5 3 SSW - 10
17.06.2019 05:00:00 23,9 17,8 2 1 - 1012,0 10
17.06.2019 04:00:00 25,0 17,0 8 4 ENE - 10
17.06.2019 03:00:00 24,0 15,0 8 4 E - 10
17.06.2019 02:00:00 24,1 16,3 5 3 ESE 1012,5 10
17.06.2019 01:00:00 24,0 17,0 4 2 W - 10
17.06.2019 00:00:00 25,0 18,0 4 2 - - 10
16.06.2019 23:00:00 25,8 18,6 5 3 NNE 1013,1 10
16.06.2019 22:00:00 26,0 16,0 5 3 NE - 10
16.06.2019 21:00:00 27,0 15,0 5 3 NE - 10
16.06.2019 20:00:00 27,9 15,0 4 2 - 1012,6 10
16.06.2019 19:00:00 30,0 14,0 8 4 E - 10
16.06.2019 18:00:00 31,0 14,0 11 6 E - 10
16.06.2019 17:00:00 31,0 14,1 8 4 SE 1012,9 10
16.06.2019 16:00:00 31,0 14,0 15 8 SE - 10
16.06.2019 15:00:00 31,0 18,0 11 6 S - 10
16.06.2019 14:00:00 33,1 13,8 13 7 SSW 1013,3 10
16.06.2019 13:00:00 33,0 14,0 13 7 SSE - 10
16.06.2019 12:00:00 32,0 14,0 13 7 SSE - 10
16.06.2019 11:00:00 32,0 15,2 13 7 SE 1013,6 10
16.06.2019 10:00:00 30,0 16,0 8 4 E - 10
16.06.2019 09:00:00 30,0 17,0 13 7 E - 10
16.06.2019 08:00:00 26,5 18,2 4 2 - 1013,1 10
16.06.2019 07:00:00 25,0 18,0 5 3 NNE - 10
16.06.2019 06:00:00 23,0 17,0 2 1 - - 10
16.06.2019 05:00:00 24,7 17,0 5 3 SE 1012,3 10
16.06.2019 04:00:00 26,0 16,0 9 5 NNE - 10
16.06.2019 03:00:00 26,0 16,0 15 8 NNW - 10
16.06.2019 02:00:00 25,2 15,3 15 8 NNW 1013,4 10
16.06.2019 01:00:00 26,0 14,0 8 4 NW - 10
16.06.2019 00:00:00 27,0 12,0 9 5 NNW - 10
15.06.2019 23:00:00 25,9 12,8 8 4 W 1013,9 10
15.06.2019 22:00:00 26,0 13,0 8 4 NW - 10
15.06.2019 21:00:00 26,0 18,0 8 4 WNW - 10
15.06.2019 20:00:00 27,1 17,8 2 1 - 1013,2 10
15.06.2019 19:00:00 27,0 18,0 15 8 NNW - 10
15.06.2019 18:00:00 29,0 19,0 15 8 NE - 10
15.06.2019 17:00:00 31,0 14,9 4 2 - 1014,4 10
15.06.2019 16:00:00 30,0 16,0 13 7 ESE - 10
15.06.2019 15:00:00 33,0 13,0 16 9 N - 10
15.06.2019 14:00:00 32,3 16,5 13 7 E 1015,1 10
15.06.2019 13:00:00 30,0 17,0 16 9 W - 10
15.06.2019 12:00:00 30,0 18,0 16 9 SW - 10
15.06.2019 11:00:00 29,7 17,5 8 4 SW 1015,6 10
15.06.2019 10:00:00 28,0 19,0 13 7 NE - 10
15.06.2019 09:00:00 28,0 19,0 11 6 N - 10
15.06.2019 08:00:00 24,9 18,4 11 6 N 1014,7 10
15.06.2019 07:00:00 24,0 17,0 4 2 NNE - 10
15.06.2019 06:00:00 23,0 16,0 4 2 SE - 10
15.06.2019 05:00:00 23,6 17,5 9 5 SW 1013,9 10
15.06.2019 04:00:00 23,0 18,0 8 4 NW - 10
15.06.2019 03:00:00 23,0 20,0 11 6 NNE - 10
15.06.2019 02:00:00 23,4 18,8 8 4 ENE 1016,4 10
15.06.2019 01:00:00 24,0 18,0 8 4 NNE - 10
15.06.2019 00:00:00 23,0 19,0 16 9 NNE - 10
14.06.2019 23:00:00 22,8 21,4 16 9 NE 1017,7 10
14.06.2019 22:00:00 23,0 21,0 18 10 N - 10
14.06.2019 21:00:00 23,0 21,0 11 6 E - 10
14.06.2019 20:00:00 24,2 19,9 11 6 E 1015,6 10
14.06.2019 19:00:00 25,0 20,0 18 10 E - 10
14.06.2019 18:00:00 26,0 19,0 21 11 E - 10
14.06.2019 17:00:00 27,5 18,6 16 9 E 1015,8 10
14.06.2019 16:00:00 28,0 18,0 24 13 E - 10
14.06.2019 15:00:00 28,0 18,0 24 13 E - 10
14.06.2019 14:00:00 29,3 17,9 28 15 E 1015,8 10
14.06.2019 13:00:00 28,0 18,0 26 14 E - 10
14.06.2019 12:00:00 28,0 18,0 26 14 E - 10
14.06.2019 11:00:00 27,8 18,5 28 15 ENE 1016,5 10
14.06.2019 10:00:00 27,0 19,0 22 12 ENE - 10
14.06.2019 09:00:00 26,0 20,0 26 14 ENE - 10
14.06.2019 08:00:00 24,2 20,6 18 10 NE 1015,5 10
14.06.2019 07:00:00 24,0 21,0 16 9 NE - 10
14.06.2019 06:00:00 22,0 21,0 13 7 NE - 10
14.06.2019 05:00:00 22,4 20,9 15 8 NE 1014,4 10
14.06.2019 04:00:00 22,0 20,0 18 10 NE - 10
14.06.2019 03:00:00 22,0 21,0 15 8 NE - 10
14.06.2019 02:00:00 23,1 21,3 15 8 NE 1014,5 10
14.06.2019 01:00:00 23,0 20,0 16 9 NE - 10
14.06.2019 00:00:00 23,0 20,0 15 8 NE - 10
13.06.2019 23:00:00 23,2 21,1 15 8 NE 1014,8 10
13.06.2019 22:00:00 23,0 21,0 11 6 NE - 10
13.06.2019 21:00:00 24,0 21,0 13 7 NE - 10
13.06.2019 20:00:00 25,2 19,8 9 5 NE 1013,3 10
13.06.2019 19:00:00 27,0 19,0 9 5 NE - 10
13.06.2019 18:00:00 28,0 18,0 11 6 NE - 10
13.06.2019 17:00:00 28,4 19,6 15 8 NE 1012,3 10
13.06.2019 16:00:00 30,0 19,0 13 7 NE - 10
13.06.2019 15:00:00 29,0 20,0 11 6 NNE - 10
13.06.2019 14:00:00 28,3 19,3 18 10 ENE 1012,7 10
13.06.2019 13:00:00 29,0 19,0 13 7 E - 10
13.06.2019 12:00:00 29,0 19,0 11 6 E - 10
13.06.2019 11:00:00 29,2 17,3 18 10 ESE 1013,3 10
13.06.2019 10:00:00 28,0 18,0 18 10 ESE - 10
13.06.2019 09:00:00 26,0 20,0 13 7 ESE - 10
13.06.2019 08:00:00 24,1 20,3 11 6 E 1012,4 10
13.06.2019 07:00:00 23,0 21,0 9 5 ENE - 10
13.06.2019 06:00:00 22,0 19,0 5 3 NE - 10
13.06.2019 05:00:00 21,9 18,5 5 3 NNE 1012,0 10
13.06.2019 04:00:00 22,0 18,0 4 2 ENE - 10
13.06.2019 03:00:00 22,0 18,0 5 3 N - 10
13.06.2019 02:00:00 22,6 17,9 8 4 N 1012,7 10
13.06.2019 01:00:00 23,0 18,0 4 2 NNE - 10
13.06.2019 00:00:00 23,0 17,0 8 4 WNW - 10

tt = temperature
td = dewpoint
ff = wind speed
dd = wind direction
ppp = reduced air pressure
vv = visibility

Next stations